Location: Castelnau-Barbarens
(43.5760°N, 0.7244°E)
Time: 20:06:48
(UTC+02:00)

ISS - Visible Passes

Search period start: 14 May 2021 00:00
Search period end: 24 May 2021 00:00
Orbit: 417 x 422 km, 51.6° (Epoch: 14 May)

Date Brightness Start Highest point End Pass type
(mag) Time Alt. Az. Time Alt. Az. Time Alt. Az.
14 May -0.8 01:18:38 14° NE 01:18:38 14° NE 01:19:15 10° NE visible
14 May -1.1 02:51:31 11° NW 02:53:50 20° N 02:56:28 10° NE visible
14 May -2.4 04:28:03 10° NW 04:31:17 41° NNE 04:34:30 10° E visible
14 May -3.4 22:48:40 10° SSW 22:51:51 41° SE 22:55:03 10° ENE visible
15 May -2.1 00:25:35 10° W 00:28:42 35° NNW 00:31:51 10° NE visible
15 May -1.0 02:03:35 10° NW 02:06:12 20° N 02:08:48 10° NE visible
15 May -1.8 03:40:40 10° NW 03:43:43 31° NNE 03:46:47 10° E visible
15 May -3.7 05:17:22 10° WNW 05:20:41 54° SW 05:23:59 10° SE visible
15 May -2.7 22:01:42 10° SSW 22:04:31 25° SE 22:07:21 10° E visible
15 May -2.8 23:37:53 10° WSW 23:41:10 49° NNW 23:44:27 10° NE visible
16 May -1.1 01:15:53 10° WNW 01:18:32 21° N 01:21:12 10° NE visible
16 May -1.4 02:53:15 10° NW 02:56:07 25° NNE 02:59:00 10° ENE visible
16 May -3.9 04:29:53 10° WNW 04:33:16 89° SSW 04:36:39 10° ESE visible
16 May -3.6 22:50:19 10° WSW 22:53:40 74° NNW 22:57:03 10° NE visible
17 May -1.3 00:28:07 10° WNW 00:30:54 23° NNW 00:33:42 10° NE visible
17 May -1.2 02:05:46 10° NW 02:08:30 22° N 02:11:13 10° ENE visible
17 May -3.2 03:42:27 10° NW 03:45:47 59° NNE 03:49:08 10° ESE visible
17 May -2.4 05:19:47 10° W 05:22:21 20° SW 05:24:54 10° S visible
17 May -3.8 22:02:54 10° SW 22:06:13 70° SE 22:09:35 10° ENE visible
17 May -1.6 23:40:19 10° WNW 23:43:17 28° NNW 23:46:15 10° NE visible
18 May -1.1 01:18:13 10° NW 01:20:50 20° N 01:22:53 13° NE visible
18 May -1.1 02:55:03 10° NW 02:55:46 15° NW 02:55:46 15° NW visible
18 May -2.0 22:52:33 10° W 22:55:41 35° NNW 22:58:50 10° NE visible
19 May -1.0 00:30:35 10° NW 00:33:10 20° N 00:35:46 10° NE visible
19 May -1.4 02:07:38 10° NW 02:09:22 23° NNW 02:09:22 23° NNW visible
19 May -2.7 22:04:52 10° WSW 22:08:08 48° NNW 22:11:25 10° NE visible
19 May -1.1 23:42:51 10° WNW 23:45:30 21° N 23:48:10 10° NE visible
20 May -1.6 01:20:12 10° NW 01:23:05 25° NNE 01:23:11 25° NNE visible
20 May -1.3 22:55:03 10° WNW 22:57:51 23° N 23:00:38 10° NE visible
21 May -1.3 00:32:43 10° NW 00:35:26 22° N 00:37:05 16° NE visible
21 May -1.0 02:09:24 10° NW 02:10:01 15° NW 02:10:01 15° NW visible
21 May -1.5 22:07:16 10° WNW 22:10:13 27° NNW 22:13:10 10° NE visible
21 May -1.2 23:45:09 10° NW 23:47:46 20° N 23:50:23 10° NE visible
22 May -1.7 01:21:59 10° NW 01:23:58 28° NNW 01:23:58 28° NNW visible
22 May -1.1 22:57:30 10° NW 23:00:05 20° N 23:02:40 10° NE visible
23 May -2.1 00:34:33 10° NW 00:37:37 31° NNE 00:37:57 30° NNE visible
23 May -1.2 22:09:45 10° WNW 22:12:24 21° N 22:15:04 10° NE visible
23 May -1.7 23:47:06 10° NW 23:49:59 25° NNE 23:51:57 15° ENE visible
